This demonstration page uses our WeatherBlox Daily Observations layout. Learn more.

Left ArrowRight Arrow

41.55636, -103.73856

Hourly Observations for May 9, 2020

Temp ( °F °C ) Dew Point ( °F °C ) Humidity (%) Winds ( mph kmh ) Pressure ( in mb ) Visibility ( mi km ) Precip ( " mm )
12:58 am 00:58 Clear 53 11.7 29 -1.5 40 40 S 13 20 30.16 1021 10 16 N/A
1:58 am 01:58 Clear 49 9.6 30 -1.1 48 48 SSE 9 15 30.15 1021 10 16 N/A
2:58 am 02:58 Mostly Cloudy 45 7.3 31 -0.3 59 59 ESE 9 15 30.17 1022 10 16 N/A
3:58 am 03:58 Mostly Cloudy 45 7.2 30 -1.1 56 56 E 9 15 30.14 1021 10 16 N/A
4:58 am 04:58 Cloudy 45 7.1 31 -0.6 58 58 ENE 13 20 30.16 1022 10 16 N/A
5:58 am 05:58 Mostly Cloudy with Light Rain 46 7.9 32 -0.1 57 57 E 16 26 30.16 1022 10 16 N/A
6:58 am 06:58 Mostly Cloudy 44 6.5 35 1.6 71 71 E 15 24 30.17 1022 10 16 N/A
7:58 am 07:58 Mostly Cloudy with Light Showers 43 6 36 2 76 76 ESE 9 15 30.17 1022 10 16 N/A
8:58 am 08:58 Mostly Cloudy 41 5 36 2.3 83 83 E 10 17 30.17 1022 10 16 N/A
9:58 am 09:58 Mostly Cloudy 40 4.3 36 2.4 88 88 E 5 7 30.19 1022 10 16 N/A
10:58 am 10:58 Mostly Cloudy 40 4.4 36 2.4 87 87 NW 9 15 30.19 1023 10 16 N/A
11:58 am 11:58 Mostly Cloudy 40 4.7 37 2.6 86 86 WNW 5 7 30.21 1023 10 16 N/A
12:58 pm 12:58 Mostly Cloudy 42 5.4 38 3.4 87 87 WNW 7 11 30.24 1024 10 16 N/A
1:58 pm 13:58 Cloudy 43 6.1 38 3.6 84 84 NW 10 17 30.26 1025 10 16 N/A
2:58 pm 14:58 Mostly Cloudy 44 6.6 37 3 78 78 NNW 16 26 30.29 1026 10 16 N/A
3:58 pm 15:58 Mostly Cloudy 44 6.4 35 1.4 71 71 NNW 18 30 30.32 1027 10 16 N/A
4:58 pm 16:58 Mostly Cloudy 43 6.2 30 -1.3 59 59 NNW 24 39 30.33 1027 10 16 N/A
5:58 pm 17:58 Mostly Cloudy 44 6.5 30 -1.1 59 59 NNW 24 39 30.32 1027 10 16 N/A
6:58 pm 18:58 Mostly Cloudy 47 8.2 28 -2.4 48 48 N 20 31 30.31 1026 10 16 N/A
7:58 pm 19:58 Partly Cloudy 51 10.8 29 -1.9 41 41 NNW 21 33 30.27 1025 10 16 N/A
8:58 pm 20:58 Mostly Cloudy 53 11.5 28 -2.1 39 39 NNW 25 41 30.27 1025 10 16 N/A
9:58 pm 21:58 Mostly Sunny 53 11.5 22 -5.6 30 30 N 18 30 30.27 1025 10 16 N/A
10:58 pm 22:58 Mostly Sunny 53 11.9 20 -6.8 27 27 NNW 22 35 30.27 1025 10 16 N/A
11:58 pm 23:58 Sunny 53 11.5 18 -7.9 25 25 N 26 43 30.27 1025 10 16 N/A

Powered by AerisWeather